Tracking 19177 objects as of 25-May-2018
HD Live streaming from Space Station
objects crossing your sky now

NOAA 16 DEB

Track NOAA 16 DEB now!
10-day predictions


NORAD ID: 42381
Int'l Code: 2000-055RZ
Perigee: 778.3 km
Apogee: 844.5 km
Inclination: 99.0 °
Period: 101.0 minutes
Semi major axis: 7182 km
RCS: Unknown
Launch date: September 21, 2000
Source: United States (US)
Launch site: AIR FORCE WESTERN TEST RANGE (AFWTR)

Note: This is SATELLITE DEBRIS
aabbcc
Your satellite tracking list
Your tracking list is empty




NASA's NSSDC Master Catalog

Two Line Element Set (TLE):
1 42381U 00055RZ  18144.06889880 +.00002065 +00000-0 +87047-3 0  9995
2 42381 099.0065 248.4205 0046134 024.7182 335.6194 14.26259691114851
Source of the keplerian elements: AFSPC